Participated 1 time
in 1938
Paul Seidel, Germany
Tour de France 2026 starts from Barcelona, Spain in

Stats and Facts from
Tour de France.

2026   2025   2024   2023  2022  2021  2020  2019   2018  2017   2016   2015  2014  2013   2012   2011  2010   2009   2008   2007   2006   2005   2004   2003   2002   2001   2000   1999   1998   1997  1996   1995   1994   1993   1992  1991   1990   1989   1988   1987   1986   1985   1984   1983  1982  1981   1980   1979  1978  1977   1976  1975  1974  1973   1972   1971   1970  1969   1968   1967   1966   1965  1964  1963   1962   1961   1960   1959   1958   1957  1956   1955   1954   1953   1952  1951  1950  1949   1948  1947  1939   1938   1937   1936   1935   1934   1933  1932   1931   1930  1929   1928   1927   1926  1925  1924  1923   1922   1921   1920   1919  1914   1913   1912   1911   1910  1909   1908   1907   1906  1905  1904   1903 

Tourstats
Sitemap

After stage 21 - 2025:
 16451 starters.
  5463 different riders.
  689 teams.
  2398 stages.
  470 restdays.
  466506.50 km.
  5925 abandoned riders.

Click map for 2016 route.
Facts from Tour de France 2016
  |   Stages.  |   Stage winners.  |   Days in jerseys.  |   Teams.  |   All riders.  |   All riders by age.  |   All riders from.  |  

  |   Rookies.  |   Withdrawls.  |   Average speed.  |   GC.  |   Polka  |   Green  |   White  |   Summits. (In tour)  |   Miscellaneous.  |  

Stage 7 on July 8th. 2016
Pick a stage:  1  2  3  4  5  6  7  8  9  10  11  12  13  14  15  16  17  18  19  20  21  

After stage 7:    Greg Van Avermaet    Thomas De Gendt    Mark Cavendish    Adam Yates  
  L'Isle-JourdainLac de Payolle | Dist: 162.00km. | Winner: Stephen Cummings

Podium
4  Côte de Capvern Vincenzo Nibaliafter117.00 km.

1  Col d'Aspin Stephen Cummingsafter155.50 km.


Average speed for all riders in stage:  40,488 km./hr.

1
 Stephen Cummings  Dimension Data03h 48' 09"=42,604  km/h

2
 Daryl Impey  ORICA BikeExchange03h 49' 13"+  00:01:04 =42,405  km/h

3
 Daniel Navarro  Cofidis – Solutions Crédits03h 49' 13"+  00:01:04 =42,405  km/h

4  Vincenzo Nibali  Astana Pro Team03h 50' 07"+  00:01:58 =42,239  km/h

5  Greg Van Avermaet  BMC03h 51' 06"+  00:02:57 =42,060  km/h

74  Adam Yates  ORICA BikeExchange03h 51' 39"+  00:03:30 =41,960  km/h

6  Luis Angel Mate  Cofidis – Solutions Crédits03h 51' 46"+  00:03:37 =41,939  km/h

7  Geraint Thomas  Sky Procycling03h 51' 46"+  00:03:37 =41,939  km/h

8  Wout Poels  Sky Procycling03h 51' 46"+  00:03:37 =41,939  km/h

9  Gorka Izagirre  Movistar03h 51' 46"+  00:03:37 =41,939  km/h

10  Alejandro Valverde  Movistar03h 51' 46"+  00:03:37 =41,939  km/h

11  Chris Froome  Sky Procycling03h 51' 46"+  00:03:37 =41,939  km/h

12  Roman Kreuziger  Tinkoff03h 51' 46"+  00:03:37 =41,939  km/h

13  Richie Porte  BMC03h 51' 46"+  00:03:37 =41,939  km/h

14  Julian Alaphilippe  Etixx-Quick Step03h 51' 46"+  00:03:37 =41,939  km/h

15  Dan Martin  Etixx-Quick Step03h 51' 46"+  00:03:37 =41,939  km/h

16  Romain Bardet  AG2R La Mondiale03h 51' 46"+  00:03:37 =41,939  km/h

17  Pierre Rolland  Cannondale Pro Cycling03h 51' 46"+  00:03:37 =41,939  km/h

18  Nairo Quintana  Movistar03h 51' 46"+  00:03:37 =41,939  km/h

19  Stef Clement  IAM Cycling03h 51' 46"+  00:03:37 =41,939  km/h

20  Bauke Mollema  Trek-Segafredo03h 51' 46"+  00:03:37 =41,939  km/h

21  Emanuel Buchmann  Bora-Argon 1803h 51' 46"+  00:03:37 =41,939  km/h

22  Wilco Kelderman  Lotto NL-Jumbo03h 51' 46"+  00:03:37 =41,939  km/h

23  Louis Meintjes  Lampre-Merida03h 51' 46"+  00:03:37 =41,939  km/h

24  Tejay Van Garderen  BMC03h 51' 46"+  00:03:37 =41,939  km/h

25  Joaquin Rodriguez  Katusha03h 51' 46"+  00:03:37 =41,939  km/h

26  Domenico Pozzovivo  AG2R La Mondiale03h 51' 46"+  00:03:37 =41,939  km/h

27  Fabio Aru  Astana Pro Team03h 51' 46"+  00:03:37 =41,939  km/h

28  Mikel Nieve  Sky Procycling03h 51' 46"+  00:03:37 =41,939  km/h

29  Sergio Henao  Sky Procycling03h 51' 46"+  00:03:37 =41,939  km/h

30  Alberto Contador  Tinkoff03h 51' 46"+  00:03:37 =41,939  km/h

31  Sébastien Reichenbach  FDJ03h 51' 46"+  00:03:37 =41,939  km/h

32  Jakob Fuglsang  Astana Pro Team03h 51' 46"+  00:03:37 =41,939  km/h

33  Warren Barguil  Giant-Alpecin03h 51' 46"+  00:03:37 =41,939  km/h

34  Jurgen Van Den Broeck  Katusha03h 51' 46"+  00:03:37 =41,939  km/h

36  Fränk Schleck  Trek-Segafredo03h 52' 09"+  00:04:00 =41,869  km/h

41  Jarlinson Pantano  IAM Cycling03h 52' 09"+  00:04:00 =41,869  km/h

37  Eduardo Sepulveda  Fortuneo-Vital Concept03h 52' 11"+  00:04:02 =41,863  km/h

39  Damiano Caruso  BMC03h 52' 11"+  00:04:02 =41,863  km/h

40  Mathias Frank  IAM Cycling03h 52' 11"+  00:04:02 =41,863  km/h

35  Alex Howes  Cannondale Pro Cycling03h 52' 18"+  00:04:09 =41,842  km/h

38  Haimar  Zubeldía  Trek-Segafredo03h 52' 18"+  00:04:09 =41,842  km/h

45  George Bennett  Lotto NL-Jumbo03h 52' 26"+  00:04:17 =41,818  km/h

43  Fabrice Jeandesboz  Direct Energie03h 52' 36"+  00:04:27 =41,788  km/h

42  Alexis Vuillermoz  AG2R La Mondiale03h 52' 38"+  00:04:29 =41,782  km/h

44  Daniel Moreno  Movistar03h 52' 38"+  00:04:29 =41,782  km/h

46  Ilnur Zakarin  Katusha03h 52' 43"+  00:04:34 =41,768  km/h

47  Tanel Kangert  Astana Pro Team03h 52' 56"+  00:04:47 =41,729  km/h

48  Paul Voss  Bora-Argon 1803h 53' 03"+  00:04:54 =41,708  km/h

49  Simon Geschke  Giant-Alpecin03h 53' 03"+  00:04:54 =41,708  km/h

53  Mikel Landa  Sky Procycling03h 53' 07"+  00:04:58 =41,696  km/h

54  Rafał Majka  Tinkoff03h 53' 07"+  00:04:58 =41,696  km/h

50  Patrick Konrad  Bora-Argon 1803h 53' 12"+  00:05:03 =41,681  km/h

51  Jan Bakelants  AG2R La Mondiale03h 53' 12"+  00:05:03 =41,681  km/h

52  Diego Rosa  Astana Pro Team03h 53' 14"+  00:05:05 =41,675  km/h

55  Tom-Jelte Slagter  Cannondale Pro Cycling03h 53' 34"+  00:05:25 =41,616  km/h

56  Robert Kišerlovski  Tinkoff03h 53' 39"+  00:05:30 =41,601  km/h

66  Brice Feillu  Fortuneo-Vital Concept03h 53' 57"+  00:05:48 =41,547  km/h

67  Sylvain Chavanel  Direct Energie03h 53' 57"+  00:05:48 =41,547  km/h

68  Tony Martin  Etixx-Quick Step03h 53' 57"+  00:05:48 =41,547  km/h

69  Serge Pauwels  Dimension Data03h 54' 32"+  00:06:23 =41,444  km/h

57  Steve Morabito  FDJ03h 54' 50"+  00:06:41 =41,391  km/h

58  Jan Polanc  Lampre-Merida03h 54' 50"+  00:06:41 =41,391  km/h

59  Thibaut Pinot  FDJ03h 54' 50"+  00:06:41 =41,391  km/h

60  Laurens Ten Dam  Giant-Alpecin03h 54' 50"+  00:06:41 =41,391  km/h

61  Amaël Moinard  BMC03h 54' 50"+  00:06:41 =41,391  km/h

62  Pierre-Luc Périchon  Fortuneo-Vital Concept03h 54' 50"+  00:06:41 =41,391  km/h

63  Lawson Craddock  Cannondale Pro Cycling03h 54' 50"+  00:06:41 =41,391  km/h

64  Rubén Plaza  ORICA BikeExchange03h 54' 50"+  00:06:41 =41,391  km/h

65  Antoine Duchesne  Direct Energie03h 54' 50"+  00:06:41 =41,391  km/h

73  Peter Stetina  Trek-Segafredo03h 55' 19"+  00:07:10 =41,306  km/h

70  Georg Preidler  Giant-Alpecin03h 55' 44"+  00:07:35 =41,233  km/h

71  Arnold Jeannesson  Cofidis – Solutions Crédits03h 55' 44"+  00:07:35 =41,233  km/h

72  Mikaël Cherel  AG2R La Mondiale03h 55' 48"+  00:07:39 =41,221  km/h

75  Romain Sicard  Direct Energie03h 57' 02"+  00:08:53 =41,007  km/h

76  Matti Breschel  Cannondale Pro Cycling03h 57' 02"+  00:08:53 =41,007  km/h

77  Anthony Delaplace  Fortuneo-Vital Concept03h 57' 02"+  00:08:53 =41,007  km/h

78  Martin Elmiger  IAM Cycling03h 57' 02"+  00:08:53 =41,007  km/h

79  Luis León Sánchez  Astana Pro Team03h 57' 08"+  00:08:59 =40,990  km/h

80  Paul Martens  Lotto NL-Jumbo03h 57' 16"+  00:09:07 =40,967  km/h

81  Alberto Losada  Katusha03h 57' 26"+  00:09:17 =40,938  km/h

82  Ángel Vicioso  Katusha03h 57' 26"+  00:09:17 =40,938  km/h

83  Jérôme Coppel  IAM Cycling03h 58' 38"+  00:10:29 =40,732  km/h

84  Oliver Naesen  IAM Cycling03h 59' 24"+  00:11:15 =40,602  km/h

85  Jürgen Roelandts  Lotto Soudal03h 59' 24"+  00:11:15 =40,602  km/h

86  Jan Bárta  Bora-Argon 1803h 59' 24"+  00:11:15 =40,602  km/h

87  Tsgabu Grmay  Lampre-Merida03h 59' 24"+  00:11:15 =40,602  km/h

88  Luka Pibernik  Lampre-Merida04h 00' 58"+  00:12:49 =40,338  km/h

89  Jasper Stuyven  Trek-Segafredo04h 00' 58"+  00:12:49 =40,338  km/h

90  Kristijan Ðurasek  Lampre-Merida04h 00' 58"+  00:12:49 =40,338  km/h

91  Paolo Tiralongo  Astana Pro Team04h 00' 58"+  00:12:49 =40,338  km/h

92  Chris Anker Sørensen  Fortuneo-Vital Concept04h 01' 30"+  00:13:21 =40,248  km/h

93  Thomas De Gendt  Lotto Soudal04h 01' 30"+  00:13:21 =40,248  km/h

94  Andriy Grivko  Astana Pro Team04h 01' 30"+  00:13:21 =40,248  km/h

95  Michael Valgren  Tinkoff04h 01' 30"+  00:13:21 =40,248  km/h

96  Tom Dumoulin  Giant-Alpecin04h 01' 30"+  00:13:21 =40,248  km/h

97  Nicolas Edet  Cofidis – Solutions Crédits04h 01' 30"+  00:13:21 =40,248  km/h

98  Natnael Berhane  Dimension Data04h 01' 30"+  00:13:21 =40,248  km/h

99  Reinardt Janse Van Rensburg  Dimension Data04h 01' 30"+  00:13:21 =40,248  km/h

100  Markel Irizar  Trek-Segafredo04h 01' 30"+  00:13:21 =40,248  km/h

101  Dylan Van Baarle  Cannondale Pro Cycling04h 01' 30"+  00:13:21 =40,248  km/h

102  Angelo Tulik  Direct Energie04h 01' 30"+  00:13:21 =40,248  km/h

103  Bryan Coquard  Direct Energie04h 01' 30"+  00:13:21 =40,248  km/h

104  Ion Izagirre  Movistar04h 01' 30"+  00:13:21 =40,248  km/h

105  Florian Vachon  Fortuneo-Vital Concept04h 01' 30"+  00:13:21 =40,248  km/h

106  Alexey Lutsenko  Astana Pro Team04h 01' 30"+  00:13:21 =40,248  km/h

107  Arthur Vichot  FDJ04h 01' 30"+  00:13:21 =40,248  km/h

108  Matthieu Ladagnous  FDJ04h 01' 30"+  00:13:21 =40,248  km/h

109  Yukiya  Arashiro  Lampre-Merida04h 01' 30"+  00:13:21 =40,248  km/h

110  Jérémy Roy  FDJ04h 01' 30"+  00:13:21 =40,248  km/h

111  Marcus Burghardt  BMC04h 01' 57"+  00:13:48 =40,174  km/h

112  Sebastian Langeveld  Cannondale Pro Cycling04h 02' 51"+  00:14:42 =40,025  km/h

113  Fabian Cancellara  Trek-Segafredo04h 02' 51"+  00:14:42 =40,025  km/h

114  Matteo Bono  Lampre-Merida04h 02' 51"+  00:14:42 =40,025  km/h

115  Borut Božič  Cofidis – Solutions Crédits04h 03' 08"+  00:14:59 =39,978  km/h

116  Iljo Keisse  Etixx-Quick Step04h 05' 34"+  00:17:25 =39,582  km/h

117  Fabio Sabatini  Etixx-Quick Step04h 05' 34"+  00:17:25 =39,582  km/h

118  Adam Hansen  Lotto Soudal04h 05' 34"+  00:17:25 =39,582  km/h

119  Reto Hollenstein  IAM Cycling04h 05' 34"+  00:17:25 =39,582  km/h

120  Ramon Sinkeldam  Giant-Alpecin04h 05' 34"+  00:17:25 =39,582  km/h

121  Roy Curvers  Giant-Alpecin04h 05' 34"+  00:17:25 =39,582  km/h

122  Cesare Benedetti  Bora-Argon 1804h 05' 34"+  00:17:25 =39,582  km/h

123  Bert-Jan Lindeman  Lotto NL-Jumbo04h 05' 34"+  00:17:25 =39,582  km/h

124  Rohan Dennis  BMC04h 05' 34"+  00:17:25 =39,582  km/h

125  Jacopo Guarnieri  Katusha04h 05' 34"+  00:17:25 =39,582  km/h

126  Robert Wagner  Lotto NL-Jumbo04h 05' 34"+  00:17:25 =39,582  km/h

127  Gregory Rast  Trek-Segafredo04h 05' 34"+  00:17:25 =39,582  km/h

128  Michael Schär  BMC04h 05' 34"+  00:17:25 =39,582  km/h

129  Simon Gerrans  ORICA BikeExchange04h 05' 34"+  00:17:25 =39,582  km/h

130  Luke Durbridge  ORICA BikeExchange04h 05' 34"+  00:17:25 =39,582  km/h

131  Timo Roosen  Lotto NL-Jumbo04h 05' 34"+  00:17:25 =39,582  km/h

132  Alexander Kristoff  Katusha04h 05' 34"+  00:17:25 =39,582  km/h

133  Brent Bookwalter  BMC04h 05' 34"+  00:17:25 =39,582  km/h

134  Kristjan Koren  Cannondale Pro Cycling04h 05' 34"+  00:17:25 =39,582  km/h

135  Rui Costa  Lampre-Merida04h 05' 34"+  00:17:25 =39,582  km/h

136  Edvald Boasson Hagen  Dimension Data04h 05' 34"+  00:17:25 =39,582  km/h

137  Bartosz Huzarski  Bora-Argon 1804h 05' 34"+  00:17:25 =39,582  km/h

138  Thomas  Voeckler  Direct Energie04h 05' 34"+  00:17:25 =39,582  km/h

139  Daniel Teklehaimanot  Dimension Data04h 05' 34"+  00:17:25 =39,582  km/h

140  Sondre Holst Enger  IAM Cycling04h 05' 34"+  00:17:25 =39,582  km/h

141  Vegard Breen  Fortuneo-Vital Concept04h 05' 34"+  00:17:25 =39,582  km/h

142  Alexis Gougeard  AG2R La Mondiale04h 05' 34"+  00:17:25 =39,582  km/h

143  Ben Gastauer  AG2R La Mondiale04h 05' 34"+  00:17:25 =39,582  km/h

144  Cédric Pineau  FDJ04h 05' 34"+  00:17:25 =39,582  km/h

145  Cyril Gautier  AG2R La Mondiale04h 05' 34"+  00:17:25 =39,582  km/h

146  Samuel Dumoulin  AG2R La Mondiale04h 05' 34"+  00:17:25 =39,582  km/h

147  Winner Anacona  Movistar04h 05' 34"+  00:17:25 =39,582  km/h

148  Armindo Fonseca  Fortuneo-Vital Concept04h 05' 34"+  00:17:25 =39,582  km/h

149  Maarten Wynants  Lotto NL-Jumbo04h 05' 34"+  00:17:25 =39,582  km/h

150  Michael Albasini  ORICA BikeExchange04h 05' 34"+  00:17:25 =39,582  km/h

151  Matteo Tosatto  Tinkoff04h 05' 34"+  00:17:25 =39,582  km/h

152  Ramūnas Navardauskas  Cannondale Pro Cycling04h 05' 34"+  00:17:25 =39,582  km/h

153  Christopher Juul Jensen  ORICA BikeExchange04h 05' 34"+  00:17:25 =39,582  km/h

154  Mathew Hayman  ORICA BikeExchange04h 05' 34"+  00:17:25 =39,582  km/h

155  Julien Vermote  Etixx-Quick Step04h 05' 34"+  00:17:25 =39,582  km/h

156  Luke Rowe  Sky Procycling04h 05' 34"+  00:17:25 =39,582  km/h

157  Albert Timmer  Giant-Alpecin04h 05' 34"+  00:17:25 =39,582  km/h

158  John Degenkolb  Giant-Alpecin04h 05' 34"+  00:17:25 =39,582  km/h

159  Marcel Kittel  Etixx-Quick Step04h 05' 34"+  00:17:25 =39,582  km/h

160  Yohann Gène  Direct Energie04h 05' 34"+  00:17:25 =39,582  km/h

161  Jérôme Cousin  Cofidis – Solutions Crédits04h 05' 34"+  00:17:25 =39,582  km/h

162  William  Bonnet  FDJ04h 05' 34"+  00:17:25 =39,582  km/h

163  Tony Gallopin  Lotto Soudal04h 05' 34"+  00:17:25 =39,582  km/h

164  Vasil Kiryienka  Sky Procycling04h 05' 34"+  00:17:25 =39,582  km/h

165  Davide Cimolai  Lampre-Merida04h 05' 34"+  00:17:25 =39,582  km/h

166  Andreas Schillinger  Bora-Argon 1804h 05' 34"+  00:17:25 =39,582  km/h

167  Anthony Roux  FDJ04h 05' 34"+  00:17:25 =39,582  km/h

168  Jesus Herrada  Movistar04h 05' 34"+  00:17:25 =39,582  km/h

169  Edward Theuns  Trek-Segafredo04h 05' 34"+  00:17:25 =39,582  km/h

170  Adrien Petit  Direct Energie04h 05' 34"+  00:17:25 =39,582  km/h

171  Gregory Henderson  Lotto Soudal04h 05' 34"+  00:17:25 =39,582  km/h

172  Leigh Howard  IAM Cycling04h 05' 34"+  00:17:25 =39,582  km/h

173  Dylan Groenewegen  Lotto NL-Jumbo04h 05' 34"+  00:17:25 =39,582  km/h

174  Petr Vakoč  Etixx-Quick Step04h 07' 37"+  00:19:28 =39,254  km/h

175  Bernhard Eisel  Dimension Data04h 08' 18"+  00:20:09 =39,146  km/h

176  Mark Renshaw  Dimension Data04h 08' 18"+  00:20:09 =39,146  km/h

177  Marcel Sieberg  Lotto Soudal04h 08' 18"+  00:20:09 =39,146  km/h

178  Mark Cavendish  Dimension Data04h 08' 18"+  00:20:09 =39,146  km/h

179  Jens Debusschere  Lotto Soudal04h 08' 18"+  00:20:09 =39,146  km/h

180  André Greipel  Lotto Soudal04h 08' 18"+  00:20:09 =39,146  km/h

181  Michael Matthews  ORICA BikeExchange04h 08' 18"+  00:20:09 =39,146  km/h

182  Nelson Oliveira  Movistar04h 08' 18"+  00:20:09 =39,146  km/h

183  Imanol Erviti  Movistar04h 08' 18"+  00:20:09 =39,146  km/h

184  Peter Sagan  Tinkoff04h 08' 18"+  00:20:09 =39,146  km/h

185  Oscar Gatto  Tinkoff04h 08' 18"+  00:20:09 =39,146  km/h

186  Maximiliano Richeze  Etixx-Quick Step04h 08' 18"+  00:20:09 =39,146  km/h

187  Sam Bennett  Bora-Argon 1804h 08' 18"+  00:20:09 =39,146  km/h

188  Marco Haller  Katusha04h 08' 18"+  00:20:09 =39,146  km/h

189  Ian Stannard  Sky Procycling04h 08' 18"+  00:20:09 =39,146  km/h

190  Daniel McLay  Fortuneo-Vital Concept04h 08' 18"+  00:20:09 =39,146  km/h

191  Lars Bak  Lotto Soudal04h 08' 18"+  00:20:09 =39,146  km/h

192  Shane Archbold  Bora-Argon 1804h 08' 18"+  00:20:09 =39,146  km/h

193  Maciej Bodnar  Tinkoff04h 08' 18"+  00:20:09 =39,146  km/h

194  Cyril Lemoine  Cofidis – Solutions Crédits04h 08' 30"+  00:20:21 =39,115  km/h

195  Sep Vanmarcke  Lotto NL-Jumbo04h 08' 30"+  00:20:21 =39,115  km/h

196  Geoffrey Soupe  Cofidis – Solutions Crédits04h 11' 27"+  00:23:18 =38,656  km/h

197  Christophe Laporte  Cofidis – Solutions Crédits04h 11' 27"+  00:23:18 =38,656  km/h

198  Michael Mørkøv  Katusha04h 12' 44"+  00:24:35 =38,460  km/h


Todays birthdays.

1888 • Giuseppe Contesini
1911 • Edmond Pages
1935 • Eddy Pauwels
1940 • Julien Haelterman
1958 • Luc Colijn
1962 • Jean-François Bernard
1984 • Yann Huguet
1993 • Owain Doull

 

Optimized for Chrome - Edge
and Opera browsers.